Hourly Data Report for February 18, 2002

SHERBROOKE A
QUEBEC

45°26'00.000" N
71°41'00.000" W
241.40 m
7028124
71610
YSC

Download Data

Hourly Data (February 2002)
Hourly Data Report for February 18, 2002
TIME
LST
Temp Definition
°C
Dew Point Definition
°C
Rel Hum Definition
%
Precip. Amount Definition
mm

Wind Dir Definition
10's deg

Wind Spd Definition
km/h
Visibility Definition
km
Stn Press Definition
kPa
Hmdx Definition


Wind Chill Definition


Weather Definition


00:00 -8.8 -13.4 69   30 7 15.0 98.92   -13  
01:00 -9.2 -12.9 74   30 9 15.0 98.98   -14  
02:00 -10.2 -13.8 75   30 7 15.0 99.06   -14  
03:00 -13.6 -14.7 91   29 6 15.0 99.13   -18  
04:00 -14.2 -16.0 86   27 6 15.0 99.24   -18  
05:00 -15.8 -16.3 96     0 15.0 99.34      
06:00 -16.0 -17.3 90   23 4 15.0 99.43   -19  
07:00 -16.0 -16.8 94     0 15.0 99.56      
08:00 -13.9 -16.4 81   26 4 24.1 99.65   -17 Clear
09:00 -11.2 -15.0 73   25 4 24.1 99.68   -14 Clear
10:00 -8.4 -14.5 61   3 4 24.1 99.72   -11 Clear
11:00 -6.2 -14.4 52     0 24.1 99.69     Clear
12:00 -5.2 -14.5 48   24 6 24.1 99.66   -8 Clear
13:00 -4.6 -13.9 48   30 6 24.1 99.60   -7 Clear
14:00 -3.6 -14.8 41   28 4 24.1 99.58   -5 Clear
15:00 -3.5 -13.1 47   26 15 24.1 99.57   -9 Clear
16:00 -3.4 -14.5 42   31 7 24.1 99.62   -6 Clear
17:00 -4.9 -14.2 48   28 11 24.1 99.61   -9 Mainly Clear
18:00 -6.9 -14.1 56   27 6 15.0 99.60   -10  
19:00 -9.3 -13.6 71   26 4 15.0 99.61   -12  
20:00 -10.8 -14.1 77   23 4 15.0 99.64   -13  
21:00 -11.8 -14.2 82   22 4 15.0 99.63   -14  
22:00 -12.6 -14.3 87     0 15.0 99.62      
23:00 -13.9 -14.7 94   7 4 15.0 99.59   -17  

Notes on Data Quality.

Legend

  • E = Estimated
  • M = Missing
  • NA = Not Available*
  • [empty] = Indicates an unobserved value
Date modified: